Regional Weather Roundup
Issued by NWS Green Bay, WI

Home | Current Version | Previous Version | Text Only | Print | Product List | Glossary On
Versions: 1 2 3 4 5 6 7 8 9 10 11 12 13 14 15 16 17 18 19 20 21 22 23 24 25 26 27 28 29 30 31 32 33 34 35 36 37 38 39 40 41 42 43 44 45 46 47 48 49 50
000
ASUS43 KGRB 221459
RWRGRB

NORTH-CENTRAL AND NORTHEAST WISCONSIN REGIONAL WEATHER ROUNDUP
NATIONAL WEATHER SERVICE GREEN BAY WI
1000 AM CDT FRI AUG 22 2014

WIZ005-009-010>012-018-019-221600-
NORTH CENTRAL WISCONSIN

CITY           SKY/WX    TMP DP  RH WIND       PRES   REMARKS
IRONWOOD       CLOUDY    68  66  94 CALM      29.93S
MANITOWISH WTR NOT AVBL
ARBOR VITAE    NOT AVBL
EAGLE RIVER    NOT AVBL
LAND O LAKES   NOT AVBL
RHINELANDER    CLOUDY    65  65 100 SE6       29.99R FOG
PHILLIPS       CLOUDY    67  66  97 CALM      29.96R
ANTIGO         NOT AVBL
TOMAHAWK       NOT AVBL
MERRILL        NOT AVBL
$$

WIZ013-073-221600-
NORTHEAST WISCONSIN

CITY           SKY/WX    TMP DP  RH WIND       PRES   REMARKS
IRON MOUNTAIN  CLOUDY    65  63  93 SE5       29.98R FOG
MARINETTE      CLOUDY    70  64  83 E8        29.95S
$$

WIZ017-030-035>037-045-221600-
CENTRAL WISCONSIN

CITY           SKY/WX    TMP DP  RH WIND       PRES   REMARKS
MEDFORD        NOT AVBL
WAUSAU         CLOUDY    67  67 100 SE5       29.94S FOG
MOSINEE        CLOUDY    66  66 100 E3        29.96S FOG
MARSHFIELD     CLOUDY    73  71  93 SE7       29.94S FOG
WISC RAPIDS    CLOUDY    75  71  87 S5        29.95S
STEVENS POINT  NOT AVBL
WAUPACA        NOT AVBL
SHAWANO        NOT AVBL
CLINTONVILLE   NOT AVBL
$$

WIZ038-039-048-051-221600-
FOX VALLEY

CITY           SKY/WX    TMP DP  RH WIND       PRES   REMARKS
NWS GREEN BAY  CLOUDY    73  69  87 SE5       29.95S
APPLETON       PTSUNNY   72  70  94 VRB5      29.96S FOG
OSHKOSH        CLOUDY    73  70  90 E3        29.95R FOG
FOND DU LAC    PTSUNNY   77  71  82 S6        29.95S
$$

WIZ022-050-052-221600-
EAST CENTRAL WISCONSIN

CITY           SKY/WX    TMP DP  RH WIND       PRES   REMARKS
STURGEON BAY   CLOUDY    70  66  88 E7        29.98R
MANITOWOC      CLOUDY    72  70  94 SE8       29.96S FOG
SHEBOYGAN      CLOUDY    71  69  93 CALM      29.97R FOG
$$

LMZ563-521-522-541>543-221600-
LAKESHORE

STATION/POSITION TIME  TEMP    WIND        PRES    VSBY  WAVE
                       AIR SEA DIR/SP/G                  HT/PER
                 (UTC) (F)     (DEG/KT/KT) (MB)    (MI)  (FT/S)
SHEBOYGAN LKSHOR 1400   67 64   80/  4/  4 1014.5S
KEWAUNEE LKSHORE 1400   67      CALM  /  2 1013.8R
NORTHPORT PIER   1400   65     120/  2/  4 1014.9S
N MID LAKE BUOY  1400   65 64  110/  6/  8 1014.6R         0
S GREEN BAY BUOY 1400   69     VRB  6      1015.1F
CHAMBERS ISLAND  1400   67      CALM  /  2 1014.9R
MENOMINEE LKSHOR 1400   68      90/  5/  5 1015.2R
$$


USA.gov is the U.S. government's official web portal to all federal, state and local government web resources and services.